Location: Cronhütte
(48.9135°N, 9.6869°E)
Time: 07:18:24
(UTC+00:00)

COSMOS 1275 DEB - Visible Passes

Search period start: 07 October 2024 00:00
Search period end: 17 October 2024 00:00
Orbit: 783 x 874 km, 82.8° (Epoch: 06 October)

Date Brightness Start Highest point End Pass type
(mag) Time Alt. Az. Time Alt. Az. Time Alt. Az.
07 Oct ? 18:17:27 10° N 18:22:30 36° ENE 18:24:39 27° ESE visible
07 Oct ? 19:59:44 10° NNW 20:04:46 38° W 20:06:13 32° WSW visible
08 Oct ? 17:58:58 10° N 18:03:47 30° ENE 18:06:41 19° ESE visible
08 Oct ? 19:40:58 10° NNW 19:46:13 46° W 19:48:15 33° SW visible
09 Oct ? 17:40:30 10° NNE 17:45:00 25° ENE 17:48:48 13° ESE visible
09 Oct ? 19:22:11 10° NNW 19:27:37 57° W 19:30:23 29° SSW visible
10 Oct ? 17:22:04 10° NNE 17:26:09 21° ENE 17:30:17 10° ESE visible
10 Oct ? 19:03:26 10° NNW 19:08:58 71° W 19:12:38 22° S visible
10 Oct ? 20:48:42 10° WNW 20:50:11 11° WNW 20:51:41 10° W visible
11 Oct ? 18:44:41 10° N 18:50:16 86° W 18:55:04 15° S visible
11 Oct ? 20:28:54 10° NW 20:31:40 14° W 20:34:28 10° WSW visible
12 Oct ? 18:25:56 10° N 18:31:32 78° E 18:37:12 10° SSE visible
12 Oct ? 20:09:33 10° NW 20:13:05 18° W 20:16:41 10° WSW visible
13 Oct ? 18:07:11 10° N 18:12:44 64° ENE 18:18:22 10° SSE visible
13 Oct ? 19:50:21 10° NW 19:54:29 22° W 19:58:39 10° SW visible
14 Oct ? 17:48:25 10° N 17:53:53 52° ENE 17:59:24 10° SSE visible
14 Oct ? 19:31:14 10° NNW 19:35:49 26° W 19:40:26 10° SW visible
15 Oct ? 17:29:40 10° N 17:34:59 42° ENE 17:40:22 10° SE visible
15 Oct ? 19:12:10 10° NNW 19:17:05 32° W 19:22:04 10° SSW visible
16 Oct ? 17:10:55 10° N 17:16:03 35° ENE 17:21:13 10° SE visible
16 Oct ? 18:53:08 10° NNW 18:58:20 40° W 19:03:34 10° SSW visible
